| time (UTC) | temp F | wind direction | speed knots | gust knots | rain 1hr in | rain 24hr in | rain mn in | humidity % | barometer mb |
| 20260504044537 | 49 | 240 | 1.7 | 5.2 | 0.00 | 0.00 | 0.00 | 59 | 1004.6 |
| 20260504043046 | 50 | 241 | 5.2 | 9.6 | 0.00 | 0.00 | 0.00 | 58 | 1004.7 |
| 20260504041537 | 50 | 205 | 7.0 | 13.0 | 0.00 | 0.00 | 0.00 | 58 | 1004.8 |
| 20260504040042 | 51 | 234 | 6.1 | 13.0 | 0.00 | 0.00 | 0.00 | 56 | 1004.7 |
| 20260504034546 | 51 | 193 | 5.2 | 15.6 | 0.00 | 0.00 | 0.00 | 53 | 1004.7 |
| 20260504033037 | 51 | 251 | 7.0 | 13.0 | 0.00 | 0.00 | 0.00 | 52 | 1004.7 |
| 20260504031548 | 50 | 217 | 3.5 | 7.8 | 0.00 | 0.00 | 0.00 | 50 | 1004.6 |
| 20260504030050 | 50 | 233 | 3.5 | 10.4 | 0.00 | 0.00 | 0.00 | 50 | 1004.7 |
| 20260504024540 | 50 | 174 | 3.5 | 9.6 | 0.00 | 0.00 | 0.00 | 51 | 1004.8 |
| 20260504023041 | 51 | 189 | 1.7 | 5.2 | 0.00 | 0.00 | 0.00 | 46 | 1004.8 |
| 20260504021545 | 52 | 222 | 2.6 | 8.7 | 0.00 | 0.00 | 0.00 | 44 | 1004.9 |
| 20260504020038 | 51 | 253 | 3.5 | 8.7 | 0.00 | 0.00 | 0.00 | 45 | 1004.9 |
| 20260504014536 | 49 | 241 | 1.7 | 4.3 | 0.00 | 0.00 | 0.00 | 52 | 1005.0 |
| 20260504013037 | 49 | 156 | 3.5 | 6.1 | 0.00 | 0.00 | 0.00 | 54 | 1005.1 |
| 20260504011539 | 49 | 195 | 1.7 | 5.2 | 0.00 | 0.00 | 0.00 | 53 | 1004.9 |
| 20260504010045 | 50 | 196 | 2.6 | 7.0 | 0.00 | 0.00 | 0.00 | 52 | 1004.7 |
| 20260504004544 | 51 | 176 | 3.5 | 7.8 | 0.00 | 0.00 | 0.00 | 51 | 1004.7 |
| 20260504003037 | 51 | 168 | 3.5 | 8.7 | 0.00 | 0.00 | 0.00 | 49 | 1004.7 |
| 20260504001539 | 52 | 157 | 2.6 | 9.6 | 0.00 | 0.00 | 0.00 | 48 | 1004.6 |
| 20260504000040 | 53 | 178 | 2.6 | 8.7 | 0.00 | 0.00 | 0.00 | 45 | 1004.5 |
| 20260503234541 | 55 | 195 | 4.3 | 12.2 | 0.00 | 0.00 | 0.00 | 37 | 1004.5 |
| 20260503233038 | 56 | 283 | 5.2 | 11.3 | 0.00 | 0.00 | 0.00 | 27 | 1004.3 |
| 20260503231538 | 57 | 262 | 7.0 | 12.2 | 0.00 | 0.00 | 0.00 | 25 | 1004.3 |
| 20260503230050 | 59 | 279 | 3.5 | 7.8 | 0.00 | 0.00 | 0.00 | 25 | 1004.3 |
| 20260503224535 | 59 | 215 | 3.5 | 10.4 | 0.00 | 0.00 | 0.00 | 27 | 1004.4 |
| 20260503223036 | 59 | 291 | 7.0 | 13.0 | 0.00 | 0.00 | 0.00 | 24 | 1004.3 |
| 20260503221546 | 58 | 236 | 2.6 | 10.4 | 0.00 | 0.00 | 0.00 | 27 | 1004.5 |
| 20260503220040 | 59 | 241 | 10.4 | 16.5 | 0.00 | 0.00 | 0.00 | 24 | 1004.6 |
| 20260503214551 | 58 | 307 | 5.2 | 13.0 | 0.00 | 0.00 | 0.00 | 26 | 1004.7 |
| 20260503213037 | 59 | 289 | 7.8 | 13.9 | 0.00 | 0.00 | 0.00 | 25 | 1004.8 |
| 20260503211537 | 59 | 252 | 8.7 | 16.5 | 0.00 | 0.00 | 0.00 | 24 | 1004.6 |
| 20260503210035 | 59 | 236 | 3.5 | 8.7 | 0.00 | 0.00 | 0.00 | 27 | 1004.7 |
| 20260503204543 | 56 | 257 | 7.0 | 12.2 | 0.00 | 0.00 | 0.00 | 27 | 1004.9 |
| 20260503203038 | 58 | 333 | 5.2 | 11.3 | 0.00 | 0.00 | 0.00 | 26 | 1005.0 |
| 20260503201541 | 55 | 311 | 3.5 | 13.0 | 0.00 | 0.00 | 0.00 | 29 | 1005.1 |
| 20260503200038 | 58 | 265 | 7.0 | 13.0 | 0.00 | 0.00 | 0.00 | 26 | 1005.5 |
| 20260503194545 | 56 | 281 | 3.5 | 13.0 | 0.00 | 0.00 | 0.00 | 28 | 1005.6 |
| 20260503193037 | 58 | 256 | 11.3 | 18.2 | 0.00 | 0.00 | 0.00 | 27 | 1005.9 |
| 20260503191538 | 57 | 316 | 7.0 | 14.8 | 0.00 | 0.00 | 0.00 | 27 | 1006.1 |
| 20260503190043 | 56 | 229 | 7.0 | 14.8 | 0.00 | 0.00 | 0.00 | 29 | 1006.4 |
| 20260503184539 | 56 | 278 | 4.3 | 13.0 | 0.00 | 0.00 | 0.00 | 30 | 1006.6 |
| 20260503183041 | 54 | 295 | 5.2 | 12.2 | 0.00 | 0.00 | 0.00 | 32 | 1006.9 |
| 20260503181554 | 55 | 269 | 4.3 | 13.0 | 0.00 | 0.00 | 0.00 | 32 | 1007.1 |
| 20260503180046 | 53 | 262 | 5.2 | 13.9 | 0.00 | 0.00 | 0.00 | 33 | 1007.3 |
| 20260503174538 | 53 | 321 | 6.1 | 13.0 | 0.00 | 0.00 | 0.00 | 32 | 1007.4 |
| 20260503173040 | 53 | 286 | 5.2 | 11.3 | 0.00 | 0.00 | 0.00 | 33 | 1007.6 |
| 20260503171538 | 51 | 302 | 7.0 | 16.5 | 0.00 | 0.00 | 0.00 | 33 | 1007.7 |
| 20260503081535 | 40 | 307 | 1.7 | 4.3 | 0.00 | 0.00 | 0.00 | 59 | 1010.4 |
| 20260503071540 | 40 | 0 | 1.7 | 3.5 | 0.00 | 0.00 | 0.00 | 59 | 1010.4 |
| 20260503054540 | 40 | 282 | 0.0 | 1.7 | 0.00 | 0.00 | 0.00 | 58 | 1010.7 |